Year,Month,Day,Hour,Minute,Value (Times are PST for temperature in C)
2009,04,04,00,00,4.30
2009,04,04,00,01,4.30
2009,04,04,00,02,4.20
2009,04,04,00,03,4.20
2009,04,04,00,04,4.20
2009,04,04,00,05,4.20
2009,04,04,00,06,4.20
2009,04,04,00,07,4.20
2009,04,04,00,08,4.20
2009,04,04,00,09,4.20
2009,04,04,00,10,4.10
2009,04,04,00,11,4.10
2009,04,04,00,12,4.10
2009,04,04,00,13,4.00
2009,04,04,00,14,4.00
2009,04,04,00,15,4.00
2009,04,04,00,16,4.00
2009,04,04,00,17,4.00
2009,04,04,00,18,4.00
2009,04,04,00,19,4.00
2009,04,04,00,20,4.00
2009,04,04,00,21,4.10
2009,04,04,00,22,4.10
2009,04,04,00,23,4.10
2009,04,04,00,24,4.10
2009,04,04,00,25,4.00
2009,04,04,00,26,4.00
2009,04,04,00,27,4.00
2009,04,04,00,28,4.00
2009,04,04,00,29,3.90
2009,04,04,00,30,3.90
2009,04,04,00,31,3.90
2009,04,04,00,32,3.80
2009,04,04,00,33,3.80
2009,04,04,00,34,3.80
2009,04,04,00,35,3.80
2009,04,04,00,36,3.80
2009,04,04,00,37,3.80
2009,04,04,00,38,3.80
2009,04,04,00,39,3.80
2009,04,04,00,40,3.70
2009,04,04,00,41,3.70
2009,04,04,00,42,3.70
2009,04,04,00,43,3.70
2009,04,04,00,44,3.60
2009,04,04,00,45,3.60
2009,04,04,00,46,3.60
2009,04,04,00,47,3.60
2009,04,04,00,48,3.60
2009,04,04,00,49,3.60
2009,04,04,00,50,3.60
2009,04,04,00,51,3.60
2009,04,04,00,52,3.60
2009,04,04,00,53,3.60
2009,04,04,00,54,3.60
2009,04,04,00,55,3.60
2009,04,04,00,56,3.60
2009,04,04,00,57,3.60
2009,04,04,00,58,3.60
2009,04,04,00,59,3.60
2009,04,04,01,00,3.60
2009,04,04,01,01,3.50
2009,04,04,01,02,3.50
2009,04,04,01,03,3.50
2009,04,04,01,04,3.40
2009,04,04,01,05,3.40
2009,04,04,01,06,3.40
2009,04,04,01,07,3.40
2009,04,04,01,08,3.40
2009,04,04,01,09,3.40
2009,04,04,01,10,3.50
2009,04,04,01,11,3.50
2009,04,04,01,12,3.50
2009,04,04,01,13,3.50
2009,04,04,01,14,3.50
2009,04,04,01,15,3.60
2009,04,04,01,16,3.60
2009,04,04,01,17,3.60
2009,04,04,01,18,3.60
2009,04,04,01,19,3.60
2009,04,04,01,20,3.60
2009,04,04,01,21,3.60
2009,04,04,01,22,3.60
2009,04,04,01,23,3.50
2009,04,04,01,24,3.50
2009,04,04,01,25,3.50
2009,04,04,01,26,3.50
2009,04,04,01,27,3.60
2009,04,04,01,28,3.60
2009,04,04,01,29,3.60
2009,04,04,01,30,3.60
2009,04,04,01,31,3.60
2009,04,04,01,32,3.50
2009,04,04,01,33,3.50
2009,04,04,01,34,3.50
2009,04,04,01,35,3.40
2009,04,04,01,36,3.30
2009,04,04,01,37,3.30
2009,04,04,01,38,3.30
2009,04,04,01,39,3.30
2009,04,04,01,40,3.30
2009,04,04,01,41,3.30
2009,04,04,01,42,3.20
2009,04,04,01,43,3.20
2009,04,04,01,44,3.10
2009,04,04,01,45,3.10
2009,04,04,01,46,3.10
2009,04,04,01,47,3.10
2009,04,04,01,48,3.10
2009,04,04,01,49,3.00
2009,04,04,01,50,2.90
2009,04,04,01,51,2.90
2009,04,04,01,52,2.90
2009,04,04,01,53,2.80
2009,04,04,01,54,2.80
2009,04,04,01,55,2.70
2009,04,04,01,56,2.70
2009,04,04,01,57,2.70
2009,04,04,01,58,2.70
2009,04,04,01,59,2.70
2009,04,04,02,00,2.70
2009,04,04,02,01,2.60
2009,04,04,02,02,2.60
2009,04,04,02,03,2.60
2009,04,04,02,04,2.60
2009,04,04,02,05,2.60
2009,04,04,02,06,2.50
2009,04,04,02,07,2.60
2009,04,04,02,08,2.50
2009,04,04,02,09,2.50
2009,04,04,02,10,2.50
2009,04,04,02,11,2.50
2009,04,04,02,12,2.50
2009,04,04,02,13,2.40
2009,04,04,02,14,2.40
2009,04,04,02,15,2.40
2009,04,04,02,16,2.40
2009,04,04,02,17,2.40
2009,04,04,02,18,2.40
2009,04,04,02,19,2.30
2009,04,04,02,20,2.30
2009,04,04,02,21,2.30
2009,04,04,02,22,2.30
2009,04,04,02,23,2.30
2009,04,04,02,24,2.30
2009,04,04,02,25,2.30
2009,04,04,02,26,2.30
2009,04,04,02,27,2.30
2009,04,04,02,28,2.30
2009,04,04,02,29,2.30
2009,04,04,02,30,2.30
2009,04,04,02,31,2.40
2009,04,04,02,32,2.40
2009,04,04,02,33,2.40
2009,04,04,02,34,2.40
2009,04,04,02,35,2.50
2009,04,04,02,36,2.50
2009,04,04,02,37,2.50
2009,04,04,02,38,2.50
2009,04,04,02,39,2.50
2009,04,04,02,40,2.50
2009,04,04,02,41,2.50
2009,04,04,02,42,2.50
2009,04,04,02,43,2.50
2009,04,04,02,44,2.60
2009,04,04,02,45,2.60
2009,04,04,02,46,2.60
2009,04,04,02,47,2.60
2009,04,04,02,48,2.60
2009,04,04,02,49,2.50
2009,04,04,02,50,2.50
2009,04,04,02,51,2.50
2009,04,04,02,52,2.50
2009,04,04,02,53,2.50
2009,04,04,02,54,2.40
2009,04,04,02,55,2.40
2009,04,04,02,56,2.50
2009,04,04,02,57,2.50
2009,04,04,02,58,2.50
2009,04,04,02,59,2.50
2009,04,04,03,00,2.50
2009,04,04,03,01,2.50
2009,04,04,03,02,2.50
2009,04,04,03,03,2.60
2009,04,04,03,04,2.60
2009,04,04,03,05,2.60
2009,04,04,03,06,2.60
2009,04,04,03,07,2.60
2009,04,04,03,08,2.60
2009,04,04,03,09,2.70
2009,04,04,03,10,2.70
2009,04,04,03,11,2.70
2009,04,04,03,12,2.60
2009,04,04,03,13,2.60
2009,04,04,03,14,2.60
2009,04,04,03,15,2.60
2009,04,04,03,16,2.60
2009,04,04,03,17,2.60
2009,04,04,03,18,2.70
2009,04,04,03,19,2.70
2009,04,04,03,20,2.70
2009,04,04,03,21,2.70
2009,04,04,03,22,2.80
2009,04,04,03,23,2.80
2009,04,04,03,24,2.80
2009,04,04,03,25,2.80
2009,04,04,03,26,2.80
2009,04,04,03,27,2.80
2009,04,04,03,28,2.80
2009,04,04,03,29,2.80
2009,04,04,03,30,2.80
2009,04,04,03,31,2.80
2009,04,04,03,32,2.80
2009,04,04,03,33,2.80
2009,04,04,03,34,2.80
2009,04,04,03,35,2.70
2009,04,04,03,36,2.70
2009,04,04,03,37,2.70
2009,04,04,03,38,2.70
2009,04,04,03,39,2.70
2009,04,04,03,40,2.60
2009,04,04,03,41,2.60
2009,04,04,03,42,2.60
2009,04,04,03,43,2.60
2009,04,04,03,44,2.60
2009,04,04,03,45,2.50
2009,04,04,03,46,2.50
2009,04,04,03,47,2.50
2009,04,04,03,48,2.50
2009,04,04,03,49,2.50
2009,04,04,03,50,2.50
2009,04,04,03,51,2.50
2009,04,04,03,52,2.50
2009,04,04,03,53,2.50
2009,04,04,03,54,2.50
2009,04,04,03,55,2.50
2009,04,04,03,56,2.50
2009,04,04,03,57,2.50
2009,04,04,03,58,2.40
2009,04,04,03,59,2.40
2009,04,04,04,00,2.40
2009,04,04,04,01,2.30
2009,04,04,04,02,2.30
2009,04,04,04,03,2.30
2009,04,04,04,04,2.30
2009,04,04,04,05,2.20
2009,04,04,04,06,2.20
2009,04,04,04,07,2.20
2009,04,04,04,08,2.20
2009,04,04,04,09,2.20
2009,04,04,04,10,2.20
2009,04,04,04,11,2.20
2009,04,04,04,12,2.20
2009,04,04,04,13,2.20
2009,04,04,04,14,2.20
2009,04,04,04,15,2.20
2009,04,04,04,16,2.20
2009,04,04,04,17,2.20
2009,04,04,04,18,2.20
2009,04,04,04,19,2.20
2009,04,04,04,20,2.10
2009,04,04,04,21,2.10
2009,04,04,04,22,2.10
2009,04,04,04,23,2.10
2009,04,04,04,24,2.00
2009,04,04,04,25,2.00
2009,04,04,04,26,2.00
2009,04,04,04,27,1.90
2009,04,04,04,28,1.90
2009,04,04,04,29,1.90
2009,04,04,04,30,2.00
2009,04,04,04,31,2.00
2009,04,04,04,32,2.00
2009,04,04,04,33,2.00
2009,04,04,04,34,2.10
2009,04,04,04,35,2.10
2009,04,04,04,36,2.10
2009,04,04,04,37,2.20
2009,04,04,04,38,2.20
2009,04,04,04,39,2.20
2009,04,04,04,40,2.20
2009,04,04,04,41,2.20
2009,04,04,04,42,2.30
2009,04,04,04,43,2.30
2009,04,04,04,44,2.40
2009,04,04,04,45,2.40
2009,04,04,04,46,2.50
2009,04,04,04,47,2.50
2009,04,04,04,48,2.50
2009,04,04,04,49,2.60
2009,04,04,04,50,2.60
2009,04,04,04,51,2.70
2009,04,04,04,52,2.70
2009,04,04,04,53,2.70
2009,04,04,04,54,2.70
2009,04,04,04,55,2.70
2009,04,04,04,56,2.80
2009,04,04,04,57,2.80
2009,04,04,04,58,2.80
2009,04,04,04,59,2.80
2009,04,04,05,00,2.80
2009,04,04,05,01,2.80
2009,04,04,05,02,2.80
2009,04,04,05,03,2.80
2009,04,04,05,04,2.80
2009,04,04,05,05,2.80
2009,04,04,05,06,2.80
2009,04,04,05,07,2.80
2009,04,04,05,08,2.80
2009,04,04,05,09,2.80
2009,04,04,05,10,2.80
2009,04,04,05,11,2.80
2009,04,04,05,12,2.70
2009,04,04,05,13,2.70
2009,04,04,05,14,2.70
2009,04,04,05,15,2.70
2009,04,04,05,16,2.70
2009,04,04,05,17,2.70
2009,04,04,05,18,2.70
2009,04,04,05,19,2.70
2009,04,04,05,20,2.70
2009,04,04,05,21,2.70
2009,04,04,05,22,2.70
2009,04,04,05,23,2.60
2009,04,04,05,24,2.50
2009,04,04,05,25,2.40
2009,04,04,05,26,2.40
2009,04,04,05,27,2.30
2009,04,04,05,28,2.20
2009,04,04,05,29,2.20
2009,04,04,05,30,2.20
2009,04,04,05,31,2.20
2009,04,04,05,32,2.20
2009,04,04,05,33,2.20
2009,04,04,05,34,2.20
2009,04,04,05,35,2.20
2009,04,04,05,36,2.20
2009,04,04,05,37,2.20
2009,04,04,05,38,2.20
2009,04,04,05,39,2.20
2009,04,04,05,40,2.20
2009,04,04,05,41,2.20
2009,04,04,05,42,2.20
2009,04,04,05,43,2.20
2009,04,04,05,44,2.20
2009,04,04,05,45,2.20
2009,04,04,05,46,2.20
2009,04,04,05,47,2.10
2009,04,04,05,48,2.10
2009,04,04,05,49,2.10
2009,04,04,05,50,2.10
2009,04,04,05,51,2.10
2009,04,04,05,52,2.10
2009,04,04,05,53,2.10
2009,04,04,05,54,2.10
2009,04,04,05,55,2.00
2009,04,04,05,56,2.00
2009,04,04,05,57,2.00
2009,04,04,05,58,2.00
2009,04,04,05,59,2.00
2009,04,04,06,00,2.00
2009,04,04,06,01,2.00
2009,04,04,06,02,2.00
2009,04,04,06,03,2.00
2009,04,04,06,04,2.00
2009,04,04,06,05,2.00
2009,04,04,06,06,2.00
2009,04,04,06,07,2.00
2009,04,04,06,08,2.00
2009,04,04,06,09,2.00
2009,04,04,06,10,2.00
2009,04,04,06,11,2.10
2009,04,04,06,12,2.10
2009,04,04,06,13,2.10
2009,04,04,06,14,2.10
2009,04,04,06,15,2.10
2009,04,04,06,16,2.10
2009,04,04,06,17,2.10
2009,04,04,06,18,2.10
2009,04,04,06,19,2.10
2009,04,04,06,20,2.10
2009,04,04,06,21,2.10
2009,04,04,06,22,2.10
2009,04,04,06,23,2.10
2009,04,04,06,24,2.10
2009,04,04,06,25,2.10
2009,04,04,06,26,2.10
2009,04,04,06,27,2.10
2009,04,04,06,28,2.10
2009,04,04,06,29,2.10
2009,04,04,06,30,2.10
2009,04,04,06,31,2.10
2009,04,04,06,32,2.10
2009,04,04,06,33,2.10
2009,04,04,06,34,2.10
2009,04,04,06,35,2.10
2009,04,04,06,36,2.10
2009,04,04,06,37,2.10
2009,04,04,06,38,2.10
2009,04,04,06,39,2.10
2009,04,04,06,40,2.10
2009,04,04,06,41,2.20
2009,04,04,06,42,2.20
2009,04,04,06,43,2.20
2009,04,04,06,44,2.20
2009,04,04,06,45,2.20
2009,04,04,06,46,2.20
2009,04,04,06,47,2.20
2009,04,04,06,48,2.20
2009,04,04,06,49,2.30
2009,04,04,06,50,2.30
2009,04,04,06,51,2.30
2009,04,04,06,52,2.20
2009,04,04,06,53,2.20
2009,04,04,06,54,2.20
2009,04,04,06,55,2.20
2009,04,04,06,56,2.20
2009,04,04,06,57,2.20
2009,04,04,06,58,2.20
2009,04,04,06,59,2.20
2009,04,04,07,00,2.20
2009,04,04,07,01,2.20
2009,04,04,07,02,2.30
2009,04,04,07,03,2.30
2009,04,04,07,04,2.30
2009,04,04,07,05,2.30
2009,04,04,07,06,2.30
2009,04,04,07,07,2.40
2009,04,04,07,08,2.40
2009,04,04,07,09,2.40
2009,04,04,07,10,2.50
2009,04,04,07,11,2.50
2009,04,04,07,12,2.60
2009,04,04,07,13,2.60
2009,04,04,07,14,2.70
2009,04,04,07,15,2.70
2009,04,04,07,16,2.70
2009,04,04,07,17,2.80
2009,04,04,07,18,2.90
2009,04,04,07,19,3.00
2009,04,04,07,20,3.10
2009,04,04,07,21,3.10
2009,04,04,07,22,3.20
2009,04,04,07,23,3.20
2009,04,04,07,24,3.30
2009,04,04,07,25,3.30
2009,04,04,07,26,3.30
2009,04,04,07,27,3.30
2009,04,04,07,28,3.40
2009,04,04,07,29,3.40
2009,04,04,07,30,3.50
2009,04,04,07,31,3.50
2009,04,04,07,32,3.50
2009,04,04,07,33,3.50
2009,04,04,07,34,3.50
2009,04,04,07,35,3.50
2009,04,04,07,36,3.50
2009,04,04,07,37,3.50
2009,04,04,07,38,3.50
2009,04,04,07,39,3.50
2009,04,04,07,40,3.50
2009,04,04,07,41,3.40
2009,04,04,07,42,3.40
2009,04,04,07,43,3.40
2009,04,04,07,44,3.50
2009,04,04,07,45,3.50
2009,04,04,07,46,3.50
2009,04,04,07,47,3.40
2009,04,04,07,48,3.40
2009,04,04,07,49,3.40
2009,04,04,07,50,3.30
2009,04,04,07,51,3.30
2009,04,04,07,52,3.30
2009,04,04,07,53,3.30
2009,04,04,07,54,3.30
2009,04,04,07,55,3.30
2009,04,04,07,56,3.30
2009,04,04,07,57,3.20
2009,04,04,07,58,3.20
2009,04,04,07,59,3.20
2009,04,04,08,00,3.20
2009,04,04,08,01,3.20
2009,04,04,08,02,3.10
2009,04,04,08,03,3.10
2009,04,04,08,04,3.10
2009,04,04,08,05,3.20
2009,04,04,08,06,3.20
2009,04,04,08,07,3.20
2009,04,04,08,08,3.20
2009,04,04,08,09,3.30
2009,04,04,08,10,3.30
2009,04,04,08,11,3.30
2009,04,04,08,12,3.30
2009,04,04,08,13,3.40
2009,04,04,08,14,3.40
2009,04,04,08,15,3.40
2009,04,04,08,16,3.50
2009,04,04,08,17,3.50
2009,04,04,08,18,3.50
2009,04,04,08,19,3.50
2009,04,04,08,20,3.50
2009,04,04,08,21,3.50
2009,04,04,08,22,3.50
2009,04,04,08,23,3.50
2009,04,04,08,24,3.50
2009,04,04,08,25,3.50
2009,04,04,08,26,3.50
2009,04,04,08,27,3.50
2009,04,04,08,28,3.50
2009,04,04,08,29,3.50
2009,04,04,08,30,3.50
2009,04,04,08,31,3.50
2009,04,04,08,32,3.50
2009,04,04,08,33,3.50
2009,04,04,08,34,3.50
2009,04,04,08,35,3.50
2009,04,04,08,36,3.60
2009,04,04,08,37,3.60
2009,04,04,08,38,3.60
2009,04,04,08,39,3.60
2009,04,04,08,40,3.70
2009,04,04,08,41,3.70
2009,04,04,08,42,3.70
2009,04,04,08,43,3.70
2009,04,04,08,44,3.80
2009,04,04,08,45,3.80
2009,04,04,08,46,3.80
2009,04,04,08,47,3.80
2009,04,04,08,48,3.80
2009,04,04,08,49,3.80
2009,04,04,08,50,3.80
2009,04,04,08,51,3.80
2009,04,04,08,52,3.80
2009,04,04,08,53,3.80
2009,04,04,08,54,3.90
2009,04,04,08,55,3.90
2009,04,04,08,56,3.90
2009,04,04,08,57,3.90
2009,04,04,08,58,3.90
2009,04,04,08,59,3.90
2009,04,04,09,00,4.00
2009,04,04,09,01,4.00
2009,04,04,09,02,4.00
2009,04,04,09,03,4.10
2009,04,04,09,04,4.10
2009,04,04,09,05,4.10
2009,04,04,09,06,4.10
2009,04,04,09,07,4.10
2009,04,04,09,08,4.10
2009,04,04,09,09,4.10
2009,04,04,09,10,4.10
2009,04,04,09,11,4.10
2009,04,04,09,12,4.10
2009,04,04,09,13,4.20
2009,04,04,09,14,4.20
2009,04,04,09,15,4.20
2009,04,04,09,16,4.20
2009,04,04,09,17,4.30
2009,04,04,09,18,4.30
2009,04,04,09,19,4.40
2009,04,04,09,20,4.50
2009,04,04,09,21,4.50
2009,04,04,09,22,4.70
2009,04,04,09,23,4.70
2009,04,04,09,24,4.80
2009,04,04,09,25,4.90
2009,04,04,09,26,4.90
2009,04,04,09,27,5.00
2009,04,04,09,28,5.10
2009,04,04,09,29,5.00
2009,04,04,09,30,4.90
2009,04,04,09,31,4.90
2009,04,04,09,32,4.90
2009,04,04,09,33,4.90
2009,04,04,09,34,4.90
2009,04,04,09,35,4.90
2009,04,04,09,36,5.00
2009,04,04,09,37,5.00
2009,04,04,09,38,4.90
2009,04,04,09,39,4.90
2009,04,04,09,40,4.90
2009,04,04,09,41,4.90
2009,04,04,09,42,4.90
2009,04,04,09,43,4.90
2009,04,04,09,44,4.90
2009,04,04,09,45,4.90
2009,04,04,09,46,5.00
2009,04,04,09,47,5.10
2009,04,04,09,48,5.10
2009,04,04,09,49,5.10
2009,04,04,09,50,5.10
2009,04,04,09,51,5.10
2009,04,04,09,52,5.10
2009,04,04,09,53,5.10
2009,04,04,09,54,5.10
2009,04,04,09,55,5.10
2009,04,04,09,56,5.10
2009,04,04,09,57,5.10
2009,04,04,09,58,5.20
2009,04,04,09,59,5.20
2009,04,04,10,00,5.30
2009,04,04,10,01,5.30
2009,04,04,10,02,5.30
2009,04,04,10,03,5.30
2009,04,04,10,04,5.30
2009,04,04,10,05,5.40
2009,04,04,10,06,5.50
2009,04,04,10,07,5.50
2009,04,04,10,08,5.40
2009,04,04,10,09,5.40
2009,04,04,10,10,5.50
2009,04,04,10,11,5.60
2009,04,04,10,12,5.60
2009,04,04,10,13,5.60
2009,04,04,10,14,5.60
2009,04,04,10,15,5.60
2009,04,04,10,16,5.60
2009,04,04,10,17,5.70
2009,04,04,10,18,5.70
2009,04,04,10,19,5.80
2009,04,04,10,20,5.80
2009,04,04,10,21,5.90
2009,04,04,10,22,6.00
2009,04,04,10,23,6.10
2009,04,04,10,24,6.20
2009,04,04,10,25,6.20
2009,04,04,10,26,6.20
2009,04,04,10,27,6.20
2009,04,04,10,28,6.20
2009,04,04,10,29,6.20
2009,04,04,10,30,6.20
2009,04,04,10,31,6.20
2009,04,04,10,32,6.10
2009,04,04,10,33,6.10
2009,04,04,10,34,6.10
2009,04,04,10,35,6.10
2009,04,04,10,36,6.20
2009,04,04,10,37,6.20
2009,04,04,10,38,6.20
2009,04,04,10,39,6.20
2009,04,04,10,40,6.20
2009,04,04,10,41,6.20
2009,04,04,10,42,6.20
2009,04,04,10,43,6.20
2009,04,04,10,44,6.20
2009,04,04,10,45,6.20
2009,04,04,10,46,6.30
2009,04,04,10,47,6.50
2009,04,04,10,48,6.60
2009,04,04,10,49,6.50
2009,04,04,10,50,6.40
2009,04,04,10,51,6.40
2009,04,04,10,52,6.40
2009,04,04,10,53,6.40
2009,04,04,10,54,6.40
2009,04,04,10,55,6.40
2009,04,04,10,56,6.30
2009,04,04,10,57,6.30
2009,04,04,10,58,6.40
2009,04,04,10,59,6.30
2009,04,04,11,00,6.20
2009,04,04,11,01,6.20
2009,04,04,11,02,6.20
2009,04,04,11,03,6.20
2009,04,04,11,04,6.20
2009,04,04,11,05,6.20
2009,04,04,11,06,6.20
2009,04,04,11,07,6.20
2009,04,04,11,08,6.10
2009,04,04,11,09,6.10
2009,04,04,11,10,6.10
2009,04,04,11,11,6.10
2009,04,04,11,12,6.10
2009,04,04,11,13,6.00
2009,04,04,11,14,6.00
2009,04,04,11,15,5.90
2009,04,04,11,16,5.90
2009,04,04,11,17,6.00
2009,04,04,11,18,6.00
2009,04,04,11,19,6.10
2009,04,04,11,20,6.10
2009,04,04,11,21,6.20
2009,04,04,11,22,6.20
2009,04,04,11,23,6.20
2009,04,04,11,24,6.20
2009,04,04,11,25,6.30
2009,04,04,11,26,6.30
2009,04,04,11,27,6.40
2009,04,04,11,28,6.40
2009,04,04,11,29,6.40
2009,04,04,11,30,6.50
2009,04,04,11,31,6.60
2009,04,04,11,32,6.60
2009,04,04,11,33,6.60
2009,04,04,11,34,6.60
2009,04,04,11,35,6.60
2009,04,04,11,36,6.60
2009,04,04,11,37,6.60
2009,04,04,11,38,6.60
2009,04,04,11,39,6.60
2009,04,04,11,40,6.50
2009,04,04,11,41,6.60
2009,04,04,11,42,6.50
2009,04,04,11,43,6.40
2009,04,04,11,44,6.50
2009,04,04,11,45,6.50
2009,04,04,11,46,6.60
2009,04,04,11,47,6.60
2009,04,04,11,48,6.60
2009,04,04,11,49,6.60
2009,04,04,11,50,6.70
2009,04,04,11,51,6.70
2009,04,04,11,52,6.80
2009,04,04,11,53,6.80
2009,04,04,11,54,6.80
2009,04,04,11,55,6.80
2009,04,04,11,56,6.80
2009,04,04,11,57,6.90
2009,04,04,11,58,7.00
2009,04,04,11,59,7.00
2009,04,04,12,00,7.10
2009,04,04,12,01,7.20
2009,04,04,12,02,7.30
2009,04,04,12,03,7.30
2009,04,04,12,04,7.20
2009,04,04,12,05,7.30
2009,04,04,12,06,7.30
2009,04,04,12,07,7.30
2009,04,04,12,08,7.30
2009,04,04,12,09,7.30
2009,04,04,12,10,7.30
2009,04,04,12,11,7.30
2009,04,04,12,12,7.30
2009,04,04,12,13,7.40
2009,04,04,12,14,7.40
2009,04,04,12,15,7.30
2009,04,04,12,16,7.30
2009,04,04,12,17,7.30
2009,04,04,12,18,7.30
2009,04,04,12,19,7.20
2009,04,04,12,20,7.30
2009,04,04,12,21,7.40
2009,04,04,12,22,7.30
2009,04,04,12,23,7.40
2009,04,04,12,24,7.30
2009,04,04,12,25,7.30
2009,04,04,12,26,7.40
2009,04,04,12,27,7.40
2009,04,04,12,28,7.40
2009,04,04,12,29,7.50
2009,04,04,12,30,7.50
2009,04,04,12,31,7.60
2009,04,04,12,32,7.50
2009,04,04,12,33,7.50
2009,04,04,12,34,7.50
2009,04,04,12,35,7.60
2009,04,04,12,36,7.60
2009,04,04,12,37,7.70
2009,04,04,12,38,7.70
2009,04,04,12,39,7.70
2009,04,04,12,40,7.60
2009,04,04,12,41,7.60
2009,04,04,12,42,7.70
2009,04,04,12,43,7.70
2009,04,04,12,44,7.70
2009,04,04,12,45,7.70
2009,04,04,12,46,7.70
2009,04,04,12,47,7.80
2009,04,04,12,48,7.80
2009,04,04,12,49,7.80
2009,04,04,12,50,7.90
2009,04,04,12,51,7.90
2009,04,04,12,52,7.80
2009,04,04,12,53,7.90
2009,04,04,12,54,7.90
2009,04,04,12,55,7.90
2009,04,04,12,56,7.90
2009,04,04,12,57,7.90
2009,04,04,12,58,7.90
2009,04,04,12,59,8.00
2009,04,04,13,00,8.10
2009,04,04,13,01,8.20
2009,04,04,13,02,8.20
2009,04,04,13,03,8.30
2009,04,04,13,04,8.30
2009,04,04,13,05,8.20
2009,04,04,13,06,8.10
2009,04,04,13,07,8.00
2009,04,04,13,08,8.00
2009,04,04,13,09,7.90
2009,04,04,13,10,8.00
2009,04,04,13,11,8.10
2009,04,04,13,12,8.10
2009,04,04,13,13,8.20
2009,04,04,13,14,8.20
2009,04,04,13,15,8.20
2009,04,04,13,16,8.10
2009,04,04,13,17,8.00
2009,04,04,13,18,7.90
2009,04,04,13,19,7.90
2009,04,04,13,20,7.90
2009,04,04,13,21,8.00
2009,04,04,13,22,8.00
2009,04,04,13,23,8.20
2009,04,04,13,24,8.20
2009,04,04,13,25,8.30
2009,04,04,13,26,8.40
2009,04,04,13,27,8.50
2009,04,04,13,28,8.50
2009,04,04,13,29,8.60
2009,04,04,13,30,8.60
2009,04,04,13,31,8.60
2009,04,04,13,32,8.60
2009,04,04,13,33,8.70
2009,04,04,13,34,8.60
2009,04,04,13,35,8.50
2009,04,04,13,36,8.50
2009,04,04,13,37,8.60
2009,04,04,13,38,8.70
2009,04,04,13,39,8.80
2009,04,04,13,40,8.80
2009,04,04,13,41,8.80
2009,04,04,13,42,8.70
2009,04,04,13,43,8.80
2009,04,04,13,44,8.80
2009,04,04,13,45,8.90
2009,04,04,13,46,8.90
2009,04,04,13,47,9.00
2009,04,04,13,48,9.10
2009,04,04,13,49,9.20
2009,04,04,13,50,9.20
2009,04,04,13,51,9.20
2009,04,04,13,52,9.20
2009,04,04,13,53,9.20
2009,04,04,13,54,9.20
2009,04,04,13,55,9.20
2009,04,04,13,56,9.10
2009,04,04,13,57,9.00
2009,04,04,13,58,8.90
2009,04,04,13,59,8.90
2009,04,04,14,00,8.90
2009,04,04,14,01,9.00
2009,04,04,14,02,9.10
2009,04,04,14,03,9.20
2009,04,04,14,04,9.20
2009,04,04,14,05,9.30
2009,04,04,14,06,9.30
2009,04,04,14,07,9.40
2009,04,04,14,08,9.40
2009,04,04,14,09,9.50
2009,04,04,14,10,9.60
2009,04,04,14,11,9.70
2009,04,04,14,12,9.70
2009,04,04,14,13,9.60
2009,04,04,14,14,9.50
2009,04,04,14,15,9.30
2009,04,04,14,16,9.20
2009,04,04,14,17,9.20
2009,04,04,14,18,9.20
2009,04,04,14,19,9.20
2009,04,04,14,20,9.20
2009,04,04,14,21,9.30
2009,04,04,14,22,9.30
2009,04,04,14,23,9.40
2009,04,04,14,24,9.40
2009,04,04,14,25,9.40
2009,04,04,14,26,9.50
2009,04,04,14,27,9.50
2009,04,04,14,28,9.60
2009,04,04,14,29,9.60
2009,04,04,14,30,9.60
2009,04,04,14,31,9.60
2009,04,04,14,32,9.60
2009,04,04,14,33,9.70
2009,04,04,14,34,9.70
2009,04,04,14,35,9.70
2009,04,04,14,36,9.70
2009,04,04,14,37,9.70
2009,04,04,14,38,9.60
2009,04,04,14,39,9.50
2009,04,04,14,40,9.50
2009,04,04,14,41,9.50
2009,04,04,14,42,9.60
2009,04,04,14,43,9.60
2009,04,04,14,44,9.70
2009,04,04,14,45,9.70
2009,04,04,14,46,9.70
2009,04,04,14,47,9.60
2009,04,04,14,48,9.60
2009,04,04,14,49,9.50
2009,04,04,14,50,9.50
2009,04,04,14,51,9.60
2009,04,04,14,52,9.60
2009,04,04,14,53,9.70
2009,04,04,14,54,9.60
2009,04,04,14,55,9.70
2009,04,04,14,56,9.70
2009,04,04,14,57,9.70
2009,04,04,14,58,9.70
2009,04,04,14,59,9.80
2009,04,04,15,00,9.80
2009,04,04,15,01,9.90
2009,04,04,15,02,10.00
2009,04,04,15,03,10.10
2009,04,04,15,04,10.10
2009,04,04,15,05,10.10
2009,04,04,15,06,10.10
2009,04,04,15,07,10.10
2009,04,04,15,08,10.10
2009,04,04,15,09,10.00
2009,04,04,15,10,9.90
2009,04,04,15,11,9.80
2009,04,04,15,12,9.80
2009,04,04,15,13,9.80
2009,04,04,15,14,9.70
2009,04,04,15,15,9.70
2009,04,04,15,16,9.70
2009,04,04,15,17,9.80
2009,04,04,15,18,9.80
2009,04,04,15,19,9.90
2009,04,04,15,20,10.00
2009,04,04,15,21,10.10
2009,04,04,15,22,10.10
2009,04,04,15,23,10.10
2009,04,04,15,24,10.00
2009,04,04,15,25,9.90
2009,04,04,15,26,10.00
2009,04,04,15,27,10.10
2009,04,04,15,28,10.10
2009,04,04,15,29,10.10
2009,04,04,15,30,10.10
2009,04,04,15,31,10.10
2009,04,04,15,32,10.10
2009,04,04,15,33,10.10
2009,04,04,15,34,10.10
2009,04,04,15,35,10.10
2009,04,04,15,36,10.10
2009,04,04,15,37,10.10
2009,04,04,15,38,10.20
2009,04,04,15,39,10.30
2009,04,04,15,40,10.40
2009,04,04,15,41,10.40
2009,04,04,15,42,10.30
2009,04,04,15,43,10.20
2009,04,04,15,44,10.20
2009,04,04,15,45,10.20
2009,04,04,15,46,10.20
2009,04,04,15,47,10.20
2009,04,04,15,48,10.20
2009,04,04,15,49,10.20
2009,04,04,15,50,10.10
2009,04,04,15,51,10.20
2009,04,04,15,52,10.30
2009,04,04,15,53,10.40
2009,04,04,15,54,10.40
2009,04,04,15,55,10.50
2009,04,04,15,56,10.60
2009,04,04,15,57,10.80
2009,04,04,15,58,10.80
2009,04,04,15,59,10.90
2009,04,04,16,00,10.90
2009,04,04,16,01,10.90
2009,04,04,16,02,10.70
2009,04,04,16,03,10.70
2009,04,04,16,04,10.70
2009,04,04,16,05,10.60
2009,04,04,16,06,10.50
2009,04,04,16,07,10.40
2009,04,04,16,08,10.30
2009,04,04,16,09,10.10
2009,04,04,16,10,10.10
2009,04,04,16,11,10.10
2009,04,04,16,12,10.20
2009,04,04,16,13,10.30
2009,04,04,16,14,10.40
2009,04,04,16,15,10.30
2009,04,04,16,16,10.30
2009,04,04,16,17,10.20
2009,04,04,16,18,10.10
2009,04,04,16,19,10.10
2009,04,04,16,20,10.10
2009,04,04,16,21,10.10
2009,04,04,16,22,10.20
2009,04,04,16,23,10.20
2009,04,04,16,24,10.30
2009,04,04,16,25,10.40
2009,04,04,16,26,10.50
2009,04,04,16,27,10.60
2009,04,04,16,28,10.60
2009,04,04,16,29,10.60
2009,04,04,16,30,10.70
2009,04,04,16,31,10.70
2009,04,04,16,32,10.70
2009,04,04,16,33,10.60
2009,04,04,16,34,10.70
2009,04,04,16,35,10.70
2009,04,04,16,36,10.70
2009,04,04,16,37,10.60
2009,04,04,16,38,10.60
2009,04,04,16,39,10.50
2009,04,04,16,40,10.40
2009,04,04,16,41,10.50
2009,04,04,16,42,10.50
2009,04,04,16,43,10.40
2009,04,04,16,44,10.40
2009,04,04,16,45,10.40
2009,04,04,16,46,10.50
2009,04,04,16,47,10.60
2009,04,04,16,48,10.60
2009,04,04,16,49,10.70
2009,04,04,16,50,10.70
2009,04,04,16,51,10.70
2009,04,04,16,52,10.60
2009,04,04,16,53,10.70
2009,04,04,16,54,10.70
2009,04,04,16,55,10.70
2009,04,04,16,56,10.80
2009,04,04,16,57,10.80
2009,04,04,16,58,10.90
2009,04,04,16,59,10.90
2009,04,04,17,00,10.90
2009,04,04,17,01,10.90
2009,04,04,17,02,10.80
2009,04,04,17,03,10.80
2009,04,04,17,04,10.80
2009,04,04,17,05,10.80
2009,04,04,17,06,10.70
2009,04,04,17,07,10.70
2009,04,04,17,08,10.60
2009,04,04,17,09,10.60
2009,04,04,17,10,10.60
2009,04,04,17,11,10.70
2009,04,04,17,12,10.70
2009,04,04,17,13,10.70
2009,04,04,17,14,10.70
2009,04,04,17,15,10.70
2009,04,04,17,16,10.60
2009,04,04,17,17,10.60
2009,04,04,17,18,10.60
2009,04,04,17,19,10.60
2009,04,04,17,20,10.60
2009,04,04,17,21,10.60
2009,04,04,17,22,10.60
2009,04,04,17,23,10.60
2009,04,04,17,24,10.60
2009,04,04,17,25,10.70
2009,04,04,17,26,10.70
2009,04,04,17,27,10.70
2009,04,04,17,28,10.70
2009,04,04,17,29,10.70
2009,04,04,17,30,10.60
2009,04,04,17,31,10.60
2009,04,04,17,32,10.60
2009,04,04,17,33,10.50
2009,04,04,17,34,10.40
2009,04,04,17,35,10.40
2009,04,04,17,36,10.40
2009,04,04,17,37,10.40
2009,04,04,17,38,10.30
2009,04,04,17,39,10.30
2009,04,04,17,40,10.30
2009,04,04,17,41,10.30
2009,04,04,17,42,10.30
2009,04,04,17,43,10.30
2009,04,04,17,44,10.30
2009,04,04,17,45,10.30
2009,04,04,17,46,10.20
2009,04,04,17,47,10.30
2009,04,04,17,48,10.30
2009,04,04,17,49,10.30
2009,04,04,17,50,10.30
2009,04,04,17,51,10.30
2009,04,04,17,52,10.30
2009,04,04,17,53,10.30
2009,04,04,17,54,10.30
2009,04,04,17,55,10.30
2009,04,04,17,56,10.30
2009,04,04,17,57,10.40
2009,04,04,17,58,10.30
2009,04,04,17,59,10.40